RH
6 7 6 6 7 9 10 8 8 8 8 8 8 7 7 9 10 10 13 12 14 23 25 26 26 23 27 28 30 36 39 35 34 37 38 44 48 47 50 53 55 54 50 49 50 48 47 48 50 50 49 48 48 47 46 45 41 40 41 41 39 37 35 36 40 42 40 36 34 32 30 29 27 28 28 28 27 25 25 26 30 29 23 22 23 23 22 20 18 17 16 17 19 23 28 30 29
6 5 5 6 7 9 10 8 8 9 8 7 7 7 7 9 11 10 13 16 18 26 31 30 28 27 31 32 34 37 40 41 41 42 44 46 48 48 49 49 50 51 48 47 48 47 47 47 48 49 48 48 49 48 47 46 41 41 43 44 44 41 38 38 40 40 39 36 35 33 32 30 29 31 31 32 30 27 26 25 30 31 26 26 28 29 27 21 19 18 16 17 19 22 28 30 30
5 5 5 6 8 9 10 8 8 9 8 6 6 7 7 8 9 10 13 17 23 29 32 32 29 31 32 32 36 36 38 43 44 45 46 48 48 48 48 46 47 48 47 45 45 46 45 46 47 49 50 51 52 50 49 47 43 41 43 49 52 49 43 41 43 42 41 39 38 38 37 37 36 37 36 37 35 33 31 28 29 31 32 33 34 35 34 27 20 18 17 17 19 22 27 31 30
5 5 5 6 8 8 9 8 8 8 7 6 5 6 7 6 8 9 11 15 25 34 36 35 35 39 37 36 40 39 41 43 44 45 45 46 46 47 47 46 46 47 45 43 43 43 44 45 46 48 51 54 54 52 50 47 45 44 44 53 58 54 50 48 46 44 43 41 43 46 44 44 42 40 39 38 38 38 37 32 28 30 34 35 34 35 36 32 24 20 19 18 19 20 25 30 30
5 5 5 7 8 8 9 9 10 8 6 6 6 7 7 7 8 9 11 11 17 30 37 37 38 42 42 44 45 42 44 45 44 44 44 44 43 44 46 46 45 44 41 41 41 42 43 43 45 47 50 53 54 52 50 48 47 46 45 55 60 56 56 54 51 49 47 45 49 51 48 47 45 41 40 39 39 40 38 32 28 27 30 33 33 33 34 33 30 24 21 21 20 21 24 28 31
6 6 7 8 8 8 8 8 9 8 6 6 6 7 8 7 8 9 13 12 13 23 32 36 36 41 44 48 48 44 45 43 44 45 44 43 41 41 45 44 40 37 36 38 40 41 42 42 43 45 49 51 52 51 50 49 49 48 47 54 59 58 58 56 55 53 51 50 53 55 51 50 47 42 42 41 41 40 35 31 30 28 26 29 31 32 31 34 34 27 24 27 27 27 25 25 30
7 8 9 8 8 8 8 7 6 7 7 7 7 7 8 8 9 11 14 13 17 26 31 34 36 40 44 48 47 45 44 43 44 44 42 42 41 41 42 40 36 36 36 37 39 40 41 42 43 46 50 52 52 51 50 50 52 53 51 54 59 61 62 59 57 55 53 52 54 57 56 58 50 42 41 40 39 37 32 32 35 32 28 28 29 30 29 31 32 27 27 32 33 31 27 24 29
8 8 9 8 9 9 9 9 7 7 7 7 8 7 8 9 9 12 15 14 19 29 34 36 37 40 45 46 46 47 46 43 41 39 39 40 41 41 42 40 39 38 37 38 40 42 42 43 46 50 54 54 53 51 50 54 57 59 56 56 62 66 67 62 59 56 54 51 53 59 63 63 53 42 40 37 37 36 35 37 40 38 34 31 27 27 27 28 28 26 26 30 33 31 27 25 28
9 8 8 8 8 9 9 9 8 8 7 7 7 8 9 10 10 11 15 14 17 29 37 41 38 37 43 45 47 48 45 41 38 38 40 40 41 41 41 40 39 39 39 42 45 47 48 48 51 55 59 59 57 54 54 61 64 65 64 63 67 72 71 66 62 59 55 52 53 62 67 64 53 45 41 39 39 39 40 41 43 42 40 36 29 26 26 26 26 24 25 26 29 29 26 26 29
9 8 8 9 8 9 8 8 8 8 8 7 8 10 10 9 9 11 14 13 16 29 38 42 37 35 41 43 46 46 44 41 38 39 40 39 39 39 40 41 40 40 42 47 50 51 51 53 54 57 62 66 71 69 63 69 75 77 76 75 77 78 75 69 64 60 58 55 54 60 66 63 53 48 44 43 43 42 41 41 43 44 42 40 33 29 27 26 26 24 24 25 26 26 26 28 32
9 8 8 9 8 8 8 7 8 8 8 9 10 9 9 9 8 12 15 13 18 31 36 38 37 36 41 43 45 44 43 41 38 40 40 38 38 38 40 41 40 41 44 49 50 52 54 54 54 58 63 66 76 80 72 73 81 82 79 80 83 82 78 71 65 62 61 62 59 57 62 62 55 50 48 48 48 45 41 39 42 43 41 41 36 32 28 26 27 25 23 26 27 27 29 31 34
10 9 9 9 8 8 8 8 8 8 9 10 10 9 10 10 10 13 13 16 24 34 35 35 35 37 40 42 43 43 42 41 40 40 39 38 38 38 39 39 39 40 44 47 48 51 52 53 57 65 69 65 67 74 72 69 71 76 80 83 84 82 79 72 67 68 70 71 67 61 61 60 56 55 55 56 55 50 44 43 44 44 43 41 37 33 30 28 28 28 25 25 29 30 32 34 35
10 9 8 8 9 9 9 9 8 10 11 10 10 10 12 11 14 17 15 19 27 30 33 35 35 37 41 42 43 44 43 42 41 41 40 39 37 37 38 37 38 40 43 46 47 49 50 54 61 66 68 66 63 66 68 67 68 77 85 83 81 79 75 71 71 75 77 74 67 63 62 60 60 60 60 60 57 51 47 46 46 44 43 40 37 34 32 31 31 31 29 27 29 32 35 36 37
10 10 9 9 10 10 9 9 9 11 10 10 11 12 15 15 18 23 22 23 25 28 32 36 36 37 42 43 44 46 44 43 42 41 41 40 39 37 36 36 37 40 42 46 47 48 51 54 57 57 56 57 60 64 68 69 74 82 85 80 78 77 73 72 75 77 75 69 64 64 65 64 63 62 61 58 54 50 47 45 43 42 40 39 38 37 36 35 34 34 33 31 31 33 35 37 39
11 10 10 10 10 10 10 10 9 10 11 10 12 13 15 19 22 25 26 26 28 32 34 36 34 33 41 43 42 44 43 42 42 41 42 41 40 37 35 34 36 39 41 45 46 47 51 52 53 52 51 53 56 62 66 69 77 82 81 78 77 77 73 73 76 76 71 67 68 69 68 65 62 59 57 54 50 47 45 43 41 41 42 41 41 41 40 40 40 39 37 36 35 35 35 36 38
11 10 11 10 10 10 10 10 10 10 11 11 12 13 13 19 26 29 29 31 34 36 36 34 34 34 40 39 36 39 42 42 41 41 41 41 39 36 34 34 35 38 40 43 43 46 50 51 51 49 51 55 56 58 62 68 78 80 78 78 77 77 76 76 77 74 70 69 72 72 67 62 59 56 54 51 49 47 46 45 43 43 44 44 45 45 45 45 46 45 42 40 39 38 36 35 37
11 10 11 11 10 10 10 11 11 11 11 12 13 13 12 15 26 34 33 34 37 37 36 36 35 34 36 36 32 36 41 40 41 41 40 40 38 37 35 34 35 38 41 43 43 45 49 51 51 51 53 60 60 59 63 68 75 77 77 77 75 75 74 75 75 72 69 69 70 68 63 60 58 57 54 52 51 50 49 47 46 46 47 47 48 49 49 50 51 50 48 44 42 41 39 37 37
11 11 11 11 11 9 10 11 10 12 12 12 13 13 13 12 21 32 32 32 38 38 37 36 35 32 33 34 32 35 40 40 40 40 40 40 38 37 35 35 37 40 43 45 44 44 47 52 53 53 54 60 63 61 64 64 66 71 74 72 71 74 73 72 73 71 70 67 65 63 61 61 59 59 57 55 53 53 53 52 52 53 53 51 51 51 50 51 52 52 51 49 46 44 42 40 40
12 12 12 11 11 10 11 11 10 12 13 14 13 13 13 12 16 26 28 28 33 35 37 36 36 35 35 34 33 36 39 39 40 40 40 39 38 37 36 37 39 42 46 46 44 43 46 52 53 54 54 58 61 63 64 62 61 67 71 72 71 75 75 74 73 70 68 65 62 62 62 62 60 60 59 56 54 54 56 57 56 56 56 55 54 53 52 51 50 50 50 51 49 47 44 43 42
12 12 12 11 12 11 11 11 11 12 13 14 14 14 14 12 13 20 24 25 28 29 33 35 35 38 37 35 34 35 38 39 40 42 41 40 38 37 37 40 43 46 48 47 45 44 46 52 55 57 57 56 58 62 60 62 68 69 70 73 74 75 76 73 71 69 67 66 64 64 64 63 62 60 57 55 55 56 59 58 57 57 58 57 57 56 55 54 52 51 50 51 49 46 44 43 42
12 12 12 12 12 11 11 11 11 12 13 14 15 14 14 13 13 16 21 23 23 24 27 27 28 35 38 36 35 35 38 40 40 42 42 39 39 37 37 42 46 48 50 49 47 46 48 54 58 57 57 55 58 61 60 63 75 78 75 76 75 74 73 71 69 68 67 67 67 67 66 65 62 59 57 56 57 60 60 59 59 59 60 60 60 60 60 60 57 55 54 54 51 47 44 42 43
12 12 12 12 12 12 11 11 11 12 13 13 15 15 14 14 13 16 19 17 16 19 21 21 23 29 32 33 34 36 39 40 40 41 40 40 39 38 38 43 48 50 52 51 50 50 52 55 57 57 56 56 60 65 65 65 73 82 81 78 78 75 71 70 70 68 69 70 69 68 67 63 60 59 58 58 59 60 61 62 62 62 62 60 61 63 63 64 62 60 59 58 56 53 48 43 44
12 13 13 13 12 12 11 11 11 12 12 13 14 14 14 14 13 14 16 14 12 16 18 20 23 27 30 32 35 36 36 38 38 37 40 42 41 41 43 48 52 54 56 56 54 55 56 56 56 56 56 58 64 66 66 70 75 82 82 78 79 76 73 74 74 73 73 72 70 67 65 62 59 58 58 58 58 58 59 61 61 61 60 60 62 64 67 67 67 66 65 63 62 61 55 48 46
13 13 13 13 13 12 11 11 11 12 12 12 13 14 14 14 14 13 15 16 15 17 18 20 25 31 36 37 37 34 34 35 35 38 43 44 45 47 51 56 59 60 61 61 60 58 58 60 58 57 59 60 63 64 67 74 76 79 79 75 75 76 77 78 76 75 71 68 65 63 62 60 57 55 54 53 53 54 55 57 58 58 59 61 63 65 68 69 69 69 69 67 67 67 61 54 53
12 13 14 14 13 12 11 11 12 12 12 12 12 13 14 14 14 14 15 17 18 19 20 22 29 36 39 39 38 35 35 36 37 41 46 49 53 55 60 67 70 69 66 64 62 60 60 61 59 58 62 63 63 65 70 73 74 77 77 72 72 75 76 74 72 70 66 62 60 57 56 54 51 49 49 48 49 50 51 53 55 55 57 59 62 65 69 71 71 73 73 71 71 73 68 63 62
12 13 13 13 13 12 11 11 12 13 13 12 12 13 14 15 14 15 17 19 20 24 27 29 34 37 39 39 39 37 37 39 41 45 47 50 55 62 70 73 71 69 67 65 65 63 61 60 60 60 64 66 66 67 68 70 71 74 74 71 74 73 70 67 65 63 61 58 56 54 52 49 47 46 46 46 46 47 49 51 54 55 55 59 62 65 69 72 72 74 74 74 75 77 76 72 69
13 13 13 13 13 13 12 12 12 13 13 12 12 12 12 14 14 14 20 24 27 32 34 35 35 37 38 39 40 40 41 42 42 43 44 45 50 63 74 73 74 73 69 69 70 68 61 57 59 63 65 66 67 66 65 65 66 68 68 69 70 66 61 60 58 57 58 58 54 50 48 46 47 47 46 45 45 46 48 50 54 56 56 59 63 66 69 71 71 71 73 75 77 79 79 77 75
13 14 13 14 13 13 14 14 13 13 13 12 12 12 12 13 12 14 21 29 33 35 35 35 35 36 37 39 42 42 41 40 40 42 45 47 52 62 70 71 77 80 76 75 75 73 66 58 57 62 65 64 63 62 62 62 62 63 63 61 60 57 56 55 54 55 55 53 50 46 43 44 46 46 45 45 45 46 49 52 56 56 57 60 64 66 69 70 70 70 72 73 75 77 78 78 76
14 14 14 14 14 14 14 14 14 13 13 12 13 13 12 12 12 19 27 32 36 36 35 36 36 35 37 39 41 41 39 39 42 45 48 50 52 55 60 64 70 76 81 81 77 74 68 60 57 60 64 62 59 58 58 58 54 53 55 56 55 54 52 50 51 51 49 47 45 41 40 42 44 45 45 45 45 46 49 54 58 59 59 63 66 68 69 70 71 72 72 72 74 75 76 77 77
14 14 14 14 14 13 14 14 13 13 14 13 13 13 13 12 13 24 35 34 35 35 35 36 35 35 37 38 40 39 39 41 45 48 48 51 52 52 55 58 63 70 77 81 78 72 67 61 61 69 70 61 57 57 54 49 46 46 50 52 53 53 51 47 45 43 41 40 39 38 40 42 44 44 44 44 44 46 49 54 59 62 63 64 66 68 70 71 72 73 73 73 75 75 75 76 77
14 14 14 14 14 13 13 14 14 13 15 13 13 13 14 13 11 24 36 35 34 34 34 36 36 36 37 38 39 39 40 44 47 49 48 51 54 54 56 60 64 67 69 74 76 70 66 61 63 73 76 67 57 53 48 43 44 47 50 51 52 52 48 43 38 35 34 34 34 35 38 40 41 40 42 43 44 46 49 52 57 61 62 62 66 67 69 71 71 71 72 73 75 76 76 76 78
15 14 15 15 14 14 14 16 16 16 16 14 14 13 14 12 12 26 36 35 34 32 33 36 36 37 37 38 40 40 44 47 48 50 49 54 61 62 62 62 63 65 65 70 73 68 65 62 61 67 73 71 60 50 46 46 49 51 51 50 49 47 42 38 36 34 31 31 31 31 33 36 36 37 40 41 42 44 47 49 53 57 59 60 62 64 66 69 68 67 68 71 72 72 71 73 76
16 16 17 17 16 16 17 18 19 17 17 16 15 14 14 13 16 29 36 34 34 31 32 35 36 37 37 39 41 43 47 48 49 49 48 55 64 65 65 62 59 61 63 69 72 68 65 64 67 71 73 71 60 50 50 53 54 53 51 49 47 44 40 39 37 33 30 29 29 29 30 31 33 35 37 38 39 42 46 49 50 54 56 56 58 59 61 64 63 60 61 64 66 65 64 65 68
17 17 18 19 19 19 19 20 21 18 17 17 16 15 14 14 19 30 34 34 34 31 31 33 35 36 38 41 44 46 49 47 47 48 49 55 56 56 61 62 59 59 62 65 64 62 63 65 70 71 69 67 59 53 53 55 55 54 53 51 48 45 41 38 34 31 29 27 28 28 27 28 30 33 35 36 37 40 45 47 48 50 53 55 54 55 56 56 55 53 54 55 57 57 56 56 59
18 19 19 20 21 21 21 22 22 21 18 17 16 15 15 15 23 31 33 33 33 31 31 32 34 36 40 44 46 48 48 46 47 49 51 55 53 52 56 60 59 59 63 62 56 58 62 65 68 65 61 61 60 56 55 57 57 56 55 52 48 43 39 35 32 30 29 27 26 25 25 26 29 31 32 34 36 39 42 44 46 48 51 53 53 53 54 53 51 50 50 51 51 50 50 51 53
18 19 19 20 21 21 22 23 24 23 19 16 15 15 15 16 26 33 33 33 33 32 32 32 34 37 42 47 48 49 47 46 49 50 50 53 52 51 53 57 58 58 62 62 57 57 60 63 66 61 57 61 62 60 59 57 56 56 54 49 44 38 34 32 30 30 28 27 25 22 22 24 28 30 31 32 35 37 39 40 42 42 45 47 47 48 48 49 48 48 49 48 48 48 48 49 50
20 21 21 21 21 21 23 23 24 24 20 17 17 17 15 19 27 32 32 34 34 33 34 34 36 40 46 50 51 50 48 47 49 49 49 51 52 53 54 55 57 58 60 62 59 56 57 61 62 58 57 64 69 65 60 56 53 52 50 46 42 37 34 32 30 30 28 27 23 18 17 21 28 30 30 31 31 32 34 36 36 38 39 40 40 41 41 41 43 44 45 44 45 46 47 47 47
22 22 22 22 21 23 24 23 24 26 22 19 19 18 18 23 30 33 34 38 38 35 35 37 40 45 50 51 53 51 49 49 49 47 49 51 52 53 54 53 55 56 57 63 62 58 61 62 59 58 59 66 72 65 56 54 52 49 47 45 42 39 35 34 31 29 27 25 21 17 15 17 23 28 30 30 29 29 28 27 27 27 29 31 32 34 36 36 36 39 41 41 42 42 43 44 45
25 24 23 21 21 24 26 25 25 26 23 21 19 19 21 26 29 33 36 39 41 40 38 42 45 49 50 51 53 51 48 49 49 48 48 50 51 53 53 52 53 52 54 63 64 61 66 63 59 60 58 61 65 59 52 51 50 48 48 47 45 42 39 37 34 31 29 26 22 19 16 14 17 22 26 26 26 24 23 21 19 19 20 23 25 28 30 31 32 35 39 40 40 40 41 42 44
27 25 22 20 22 25 25 26 26 27 26 24 22 22 24 27 31 34 36 39 44 45 45 46 48 50 51 51 52 50 49 49 50 50 48 48 49 51 51 50 51 52 54 60 61 65 71 66 60 60 59 60 59 53 51 51 49 49 50 50 48 46 43 40 37 33 31 30 27 23 19 17 17 18 19 20 20 19 19 19 20 22 22 22 24 25 27 28 28 31 33 34 35 38 39 40 42
29 28 23 21 24 25 25 27 29 28 29 29 26 26 27 29 35 37 36 39 44 46 48 50 51 52 52 53 52 49 49 49 50 50 48 48 48 49 50 47 48 53 56 55 55 62 67 60 57 58 59 60 54 51 52 50 49 48 48 49 48 47 46 44 40 36 33 32 32 28 22 20 21 20 18 18 17 17 18 20 23 25 26 26 26 26 26 26 28 29 30 31 31 33 34 37 39
28 28 25 23 24 27 27 29 30 28 29 32 29 28 29 30 33 35 35 37 42 45 48 51 52 54 54 55 52 48 49 49 50 51 50 50 51 50 51 47 46 51 55 53 52 55 53 48 54 57 57 56 52 50 50 49 49 48 46 46 46 46 46 45 43 39 36 35 36 30 25 24 24 23 21 19 20 21 21 22 24 26 27 27 27 26 26 24 26 29 29 31 31 30 31 32 35
25 27 28 26 25 28 30 29 29 28 31 36 34 29 31 32 30 33 33 35 40 45 47 49 51 53 54 56 53 49 50 50 50 52 52 53 52 52 53 50 48 53 55 52 50 50 45 44 54 58 56 55 53 52 50 50 49 46 45 46 45 45 46 46 44 42 38 37 36 31 28 26 24 24 23 22 24 24 24 24 25 25 25 25 25 25 25 23 26 30 29 30 30 30 31 30 31
25 30 30 26 24 28 31 29 29 32 33 36 36 31 32 34 32 33 35 35 39 43 46 47 50 52 54 56 54 51 51 51 52 54 54 54 52 51 52 52 53 58 59 54 48 48 46 48 54 57 59 61 57 52 51 51 48 44 47 49 47 47 47 46 46 44 40 37 35 32 30 27 25 25 25 24 25 24 23 23 23 23 22 21 20 21 21 22 27 29 27 28 28 27 28 29 30
28 32 31 28 27 29 30 29 30 35 34 33 36 34 33 35 35 35 36 35 37 40 41 43 47 52 55 55 55 54 52 51 53 54 54 55 53 54 58 61 64 66 64 60 55 51 51 53 56 58 63 65 59 55 53 50 47 46 49 51 51 50 48 47 48 45 41 38 37 36 34 30 27 25 24 25 25 23 22 21 20 20 19 17 17 17 18 23 29 28 25 25 23 24 25 26 27
31 33 30 28 29 30 30 29 30 35 34 34 38 38 34 35 35 35 36 36 36 37 38 39 42 48 52 54 56 56 53 52 53 53 54 56 57 65 73 75 76 74 68 66 61 56 56 57 58 61 66 67 61 57 55 49 46 46 48 50 52 52 51 52 51 46 43 43 42 40 39 35 31 27 25 24 22 21 19 18 18 17 17 16 16 17 19 23 26 25 21 18 17 19 23 24 24
32 30 27 27 28 29 30 29 30 32 34 36 40 42 38 36 36 36 37 38 38 39 39 40 40 43 47 52 55 57 55 53 51 51 55 57 59 69 78 79 79 76 71 69 67 64 62 60 61 62 65 66 64 60 54 49 47 48 49 51 54 55 55 55 54 50 45 44 42 42 41 39 36 31 26 22 21 20 19 18 17 17 16 16 16 16 17 18 19 18 16 15 14 16 19 21 23
30 28 27 28 30 30 30 30 30 30 34 37 41 44 42 37 38 39 40 40 41 42 43 43 43 43 44 47 52 57 56 52 50 50 53 56 58 63 69 74 79 78 74 75 76 74 70 67 66 67 66 68 69 63 53 49 50 48 49 54 58 60 60 59 60 55 48 44 43 43 42 39 36 33 28 24 21 21 20 19 18 16 16 16 15 15 15 15 15 15 15 14 15 15 17 19 21
28 27 28 28 31 32 31 32 32 31 32 35 39 43 42 39 39 40 43 44 45 47 48 48 49 49 47 47 50 55 57 54 52 52 52 55 57 59 60 65 72 77 78 81 82 78 75 73 69 71 71 72 75 68 55 51 52 48 49 57 63 66 65 64 64 58 50 46 47 47 45 40 38 37 34 30 27 24 22 21 19 17 16 15 15 15 15 14 14 14 14 13 13 14 14 15 16
28 28 30 29 31 35 36 36 36 33 33 35 37 39 40 39 40 42 44 45 47 51 53 54 55 54 53 53 54 56 59 59 58 55 54 56 58 58 60 62 66 73 75 76 79 79 77 76 75 77 78 77 77 71 59 54 54 51 52 60 67 69 68 65 63 58 51 48 49 51 50 45 44 43 38 34 33 31 30 28 24 21 18 16 16 15 15 15 14 14 13 13 12 12 11 12 12
31 30 31 31 32 34 35 35 35 35 36 38 38 37 36 36 39 42 44 47 50 53 55 56 57 57 57 57 57 58 59 61 62 59 56 58 61 61 65 66 65 68 69 68 73 78 78 77 78 80 81 79 75 70 63 58 56 55 56 61 66 68 66 63 61 57 51 50 51 52 52 50 48 45 40 36 34 34 35 34 31 27 23 20 19 18 17 17 16 15 14 14 13 12 12 11 11
35 33 31 33 34 35 36 38 39 38 38 40 39 38 36 35 38 40 42 47 50 52 54 54 55 56 57 56 56 56 56 56 57 58 59 61 63 65 72 76 73 69 69 69 73 78 79 79 78 78 80 78 70 65 61 56 55 56 58 61 65 67 67 63 60 59 55 52 52 53 55 53 50 47 44 41 37 36 37 37 36 31 27 24 23 22 22 21 20 19 17 17 15 15 14 13 13
38 36 34 36 36 36 38 41 42 40 37 39 40 39 38 36 36 37 40 44 44 45 48 48 49 50 50 52 52 52 53 51 51 55 60 64 66 66 68 74 79 76 71 71 74 79 81 82 81 81 83 77 65 59 56 53 55 59 61 63 66 69 71 69 66 62 56 52 53 57 59 57 53 50 48 44 42 41 42 41 38 35 30 28 27 26 26 25 24 24 22 21 19 18 17 16 16
38 38 38 38 37 37 37 39 40 39 35 37 39 40 41 38 36 36 38 42 42 42 44 46 49 49 50 53 53 52 52 51 53 57 61 66 71 69 61 63 78 84 75 71 77 80 80 81 80 80 82 76 64 58 58 56 58 60 62 65 67 69 71 68 65 59 52 49 52 59 62 59 54 51 49 48 46 46 47 44 39 36 35 34 32 31 30 28 28 27 26 26 25 24 23 21 21
38 38 39 39 38 38 38 38 40 38 36 37 38 40 41 37 36 37 38 42 45 47 48 50 52 52 54 56 55 53 52 52 56 61 64 68 72 69 59 57 73 82 76 73 77 79 77 76 75 73 76 76 69 66 64 61 59 60 61 61 59 59 60 58 56 52 48 47 50 56 60 57 53 50 49 49 48 48 49 46 42 39 40 39 39 38 36 34 33 32 32 31 30 30 29 28 26
39 38 38 39 39 40 40 40 40 38 39 40 39 40 38 35 38 39 39 43 48 50 52 53 54 55 57 58 56 54 54 54 56 59 62 67 72 70 62 61 70 74 74 74 76 77 76 74 71 66 67 70 69 67 63 58 55 55 56 56 53 52 52 52 51 48 46 48 52 57 57 54 50 50 51 49 49 53 53 49 47 48 50 50 49 47 45 43 41 40 40 39 38 37 35 34 34
40 38 39 40 39 40 41 43 42 40 40 41 39 39 37 37 41 40 40 44 47 49 51 53 56 59 60 60 57 55 55 56 59 60 62 65 69 68 66 68 71 70 73 75 73 75 76 71 66 61 59 60 58 57 54 50 50 52 55 58 57 54 50 50 51 49 47 52 57 56 52 50 49 50 52 52 55 62 61 57 58 62 64 65 64 61 58 55 52 51 51 50 48 46 45 43 42
42 41 41 41 41 41 42 44 46 42 41 41 38 36 36 39 43 43 42 43 44 47 49 51 55 58 60 61 59 57 57 59 62 64 65 65 65 64 65 69 68 66 69 71 70 73 72 65 60 56 54 54 54 52 51 50 51 53 55 58 59 56 51 49 51 50 48 52 55 51 45 46 48 49 52 55 62 69 69 66 68 71 71 72 73 70 66 64 62 62 62 61 59 56 53 52 51